Baltimore Martin, MD

10:26 AM EST on February 23, 2018 (GMT -0500)
Martin State

Weather History for KMTN - October, 2013

Change the Weather History Date:

Thursday, October 17, 2013

  Actual Average Record
Temperature  
Mean Temperature 66 °F -  
Max Temperature 73 °F 62 °F 77 °F (2007)
Min Temperature 59 °F 45 °F 39 °F (2017)
Cooling Degree Days 1    
Growing Degree Days 16 (Base 50)    
Moisture  
Dew Point 62 °F    
Average Humidity 94    
Maximum Humidity 100    
Minimum Humidity 78    
Precipitation  
Precipitation 0.01 in - - ()
Sea Level Pressure  
Sea Level Pressure 29.88 in    
Wind  
Wind Speed 2 mph (South)    
Max Wind Speed 12 mph    
Max Gust Speed 17 mph    
Visibility 6 miles    
Events Rain    
Averages and records for this station are not official NWS values.
T = Trace of Precipitation, MM = Missing Value Source: NWS Daily Summary

Daily Weather History Graph

Daily Weather History Graph

Search for Another Location

Airport or City:

Trip Planner

Search our weather history database for the weather conditions in past years. The results will help you decide how hot, cold, wet, or windy it might be!

Date:

Astronomy

Oct. 17, 2013 Rise Set
Actual Time 7:17 AM EDT 6:23 PM EDT
Civil Twilight 6:50 AM EDT 6:50 PM EDT
Nautical Twilight 6:19 AM EDT 7:21 PM EDT
Astronomical Twilight 5:48 AM EDT 7:52 PM EDT
Moon 5:36 PM EDT (10/17) 5:47 AM EDT (10/17)
Length of Visible Light 11h 59m
Length of Day
11h 05m
Waxing Gibbous, 98% of the Moon is Illuminated
Oct 17
Waxing Gibbous
Oct 18
Full
Oct 26
Last Quarter
Nov 3
New
Nov 10
First Quarter

Hourly Weather History & Observations

Time (EDT) Temp. Dew Point Humidity Pressure Visibility Wind Dir Wind Speed Gust Speed Precip Events Conditions
12:09 AM 60.8 °F 60.8 °F 100% 29.94 in 5.0 mi Calm Calm - N/A   Clear
12:30 AM 60.8 °F 60.8 °F 100% 29.93 in 5.0 mi Calm Calm - N/A   Clear
12:51 AM 60.8 °F 60.8 °F 100% 29.93 in 5.0 mi Calm Calm - N/A   Clear
1:09 AM 60.8 °F 60.8 °F 100% 29.93 in 5.0 mi Calm Calm - N/A   Clear
1:30 AM 59.0 °F 59.0 °F 100% 29.92 in 7.0 mi Calm Calm - N/A   Clear
1:51 AM 60.8 °F 60.8 °F 100% 29.92 in 5.0 mi Calm Calm - N/A   Clear
2:09 AM 60.8 °F 60.8 °F 100% 29.92 in 5.0 mi Calm Calm - N/A   Clear
2:30 AM 60.8 °F 60.8 °F 100% 29.92 in 5.0 mi Calm Calm - N/A   Clear
2:51 AM 60.8 °F 60.8 °F 100% 29.92 in 4.0 mi Calm Calm - N/A   Clear
3:12 AM 60.8 °F 60.8 °F 100% 29.91 in 4.0 mi Calm Calm - N/A   Clear
3:30 AM 59.0 °F 59.0 °F 100% 29.91 in 5.0 mi Calm Calm - N/A   Clear
3:51 AM 59.0 °F 59.0 °F 100% 29.90 in 5.0 mi Calm Calm - N/A   Clear
4:12 AM 59.0 °F 59.0 °F 100% 29.90 in 4.0 mi Calm Calm - N/A   Clear
4:30 AM 59.0 °F 59.0 °F 100% 29.90 in 7.0 mi Calm Calm - N/A   Clear
4:51 AM 59.0 °F 59.0 °F 100% 29.90 in 5.0 mi Calm Calm - N/A   Clear
5:12 AM 59.0 °F 59.0 °F 100% 29.90 in 7.0 mi Calm Calm - N/A   Scattered Clouds
5:30 AM 59.0 °F 59.0 °F 100% 29.91 in 7.0 mi Calm Calm - N/A   Scattered Clouds
5:55 AM 60.8 °F 60.8 °F 100% 29.91 in 5.0 mi Calm Calm - N/A   Overcast
6:50 AM 60.8 °F 60.8 °F 100% 29.91 in 7.0 mi Calm Calm - N/A   Overcast
7:45 AM 62.6 °F 62.6 °F 100% 29.92 in 5.0 mi Calm Calm - N/A   Overcast
8:45 AM 64.4 °F 64.4 °F 100% 29.93 in 2.5 mi Calm Calm - N/A   Overcast
9:45 AM 64.4 °F 64.4 °F 100% 29.92 in 2.5 mi Calm Calm - N/A   Overcast
10:52 AM 66.2 °F 64.4 °F 94% 29.92 in 3.0 mi Calm Calm - N/A   Overcast
11:28 AM 68.0 °F 64.4 °F 88% 29.90 in 4.0 mi Calm Calm - N/A   Mostly Cloudy
11:45 AM 69.8 °F 64.4 °F 83% 29.90 in 5.0 mi Calm Calm - N/A   Haze
12:45 PM 69.8 °F 64.4 °F 83% 29.90 in 7.0 mi SE 4.6 mph - N/A   Scattered Clouds
1:45 PM 71.6 °F 66.2 °F 83% 29.85 in 10.0 mi SE 9.2 mph - N/A   Scattered Clouds
2:55 PM 71.6 °F 66.2 °F 83% 29.83 in 10.0 mi SSE 3.5 mph - N/A   Scattered Clouds
3:45 PM 73.4 °F 66.2 °F 78% 29.82 in 10.0 mi SE 6.9 mph - N/A   Scattered Clouds
4:45 PM 69.8 °F 66.2 °F 88% 29.80 in 10.0 mi SSE 5.8 mph - N/A Rain Light Rain
6:45 PM 69.8 °F 66.2 °F 88% 29.75 in 10.0 mi SE 9.2 mph - N/A   Mostly Cloudy
8:45 PM 69.8 °F 66.2 °F 88% 29.75 in 7.0 mi SSE 9.2 mph - N/A   Overcast
10:12 PM 69.8 °F 64.4 °F 83% 29.76 in 10.0 mi SSW 9.2 mph - N/A   Overcast
10:33 PM 69.8 °F 64.4 °F 83% 29.78 in 10.0 mi WSW 11.5 mph 16.1 mph N/A Rain Light Rain
10:54 PM 64.4 °F 60.8 °F 88% 29.79 in 10.0 mi WSW 8.1 mph - 0.01 in Rain Rain
11:12 PM 64.4 °F 62.6 °F 94% 29.79 in 10.0 mi WSW 8.1 mph - N/A   Light Drizzle
11:33 PM 64.4 °F 62.6 °F 94% 29.80 in 10.0 mi WSW 8.1 mph - N/A   Scattered Clouds
11:54 PM 64.4 °F 60.8 °F 88% 29.80 in 10.0 mi WSW 11.5 mph 17.3 mph N/A   Scattered Clouds